Regional Weather Roundup
Issued by NWS

Home | Current Version | Previous Version | Text Only | Print | Product List | Glossary On
Versions: 1 2 3 4 5 6 7 8 9 10 11 12 13 14 15 16 17 18 19 20 21 22 23 24 25 26 27 28 29 30 31 32 33 34 35 36 37 38 39 40 41 42 43 44 45 46 47 48 49 50
077
ASUS43 KLMK 172010
RWRKY
KENTUCKY REGIONAL WEATHER ROUNDUP
NATIONAL WEATHER SERVICE LOUISVILLE KY
300 PM EST SUN DEC 17 2017

NOTE "FAIR" INDICATES FEW OR NO CLOUDS BELOW 12,000 FEET
WITH NO SIGNIFICANT WEATHER AND/OR OBSTRUCTIONS TO VISIBILITY.

KYZ001>023-026-027-061>063-070>075-172100-
WESTERN AND SOUTH CENTRAL KENTUCKY

CITY           SKY/WX    TMP DP  RH WIND       PRES   REMARKS
PADUCAH        CLOUDY    47  40  76 SW5       30.07F
HENDERSON      CLOUDY    45  40  82 SW5       30.10F
OWENSBORO      CLOUDY    45  39  79 S5        30.11S
HOPKINSVILLE   CLOUDY    44  42  93 SE7       30.08R
BOWLING GREEN  CLOUDY    45  43  93 SE12      30.08F
GLASGOW        CLOUDY    43  40  91 CALM      30.11F
$$

KYZ024-025-028>034-038-045-046-053-172100-
NORTH CENTRAL KENTUCKY

CITY           SKY/WX    TMP DP  RH WIND       PRES   REMARKS
LOUISVILLE/SDF CLOUDY    47  36  65 S3        30.10F
LOUISVILLE/LOU CLOUDY    46  37  71 S6        30.11F
FORT KNOX      CLOUDY    44  36  73 S7        30.08R
$$

KYZ035>037-039>044-047>052-055>060-089>105-172100-
NORTHEAST KENTUCKY

CITY           SKY/WX    TMP DP  RH WIND       PRES   REMARKS
LEXINGTON      LGT RAIN  42  37  82 SW7       30.13F
COVINGTON      CLOUDY    45  33  63 S5        30.09F
FRANKFORT      CLOUDY    43  36  76 SW7       30.11F
$$

KYZ054-064>069-076>088-106>120-172100-
SOUTHEAST KENTUCKY

CITY           SKY/WX    TMP DP  RH WIND       PRES   REMARKS
JACKSON        LGT RAIN  40  35  83 W5        30.15R
LONDON         CLOUDY    43  34  70 W3        30.14R
SOMERSET       CLOUDY    43  32  65 W3        30.16R
MIDDLESBORO    CLOUDY    42  36  79 CALM      30.15R
MONTICELLO     CLOUDY    46  35  65 N9        30.15S
$$





USA.gov is the U.S. government's official web portal to all federal, state and local government web resources and services.